| time (UTC) | temp C | wind direction | speed KPH | gust KPH | rain 1hr cm | rain 24hr cm | rain mn cm | humidity % | barometer mb |
| 20260507155453 | 18 | 46 | 0.0 | 0.0 | 0.00 | 0.00 | 0.00 | 67 | 1020.0 |
| 20260507152451 | 18 | 328 | 1.6 | 3.2 | 0.00 | 0.00 | 0.00 | 67 | 1020.5 |
| 20260507145447 | 17 | 1 | 1.6 | 3.2 | 0.00 | 0.00 | 0.00 | 72 | 1020.6 |
| 20260507142445 | 17 | 1 | 3.2 | 3.2 | 0.00 | 0.00 | 0.00 | 73 | 1020.9 |
| 20260507135444 | 15 | 281 | 0.0 | 0.0 | 0.00 | 0.00 | 0.00 | 82 | 1021.2 |
| 20260507132442 | 13 | 277 | 0.0 | 0.0 | 0.00 | 0.00 | 0.00 | 88 | 1021.2 |
| 20260507125438 | 12 | 291 | 0.0 | 0.0 | 0.00 | 0.00 | 0.00 | 98 | 1021.1 |
| 20260507122435 | 11 | 296 | 0.0 | 0.0 | 0.00 | 0.00 | 0.00 | 99 | 1020.6 |
| 20260507115430 | 11 | 296 | 0.0 | 0.0 | 0.00 | 0.00 | 0.00 | 99 | 1020.4 |
| 20260507112429 | 11 | 297 | 0.0 | 0.0 | 0.00 | 0.00 | 0.00 | 98 | 1020.1 |
| 20260507105426 | 11 | 329 | 0.0 | 0.0 | 0.00 | 0.00 | 0.00 | 98 | 1019.7 |
| 20260507102422 | 11 | 41 | 0.0 | 0.0 | 0.00 | 0.00 | 0.00 | 97 | 1018.9 |
| 20260507095421 | 11 | 41 | 0.0 | 0.0 | 0.00 | 0.00 | 0.00 | 95 | 1018.8 |
| 20260507092421 | 12 | 41 | 0.0 | 0.0 | 0.00 | 0.00 | 0.00 | 91 | 1018.5 |
| 20260507085418 | 12 | 21 | 0.0 | 0.0 | 0.00 | 0.00 | 0.00 | 90 | 1018.4 |
| 20260507082415 | 12 | 25 | 0.0 | 0.0 | 0.00 | 0.00 | 0.00 | 91 | 1018.4 |
| 20260507075410 | 13 | 59 | 0.0 | 1.6 | 0.00 | 0.00 | 0.00 | 90 | 1018.0 |
| 20260507072410 | 13 | 42 | 0.0 | 0.0 | 0.00 | 0.00 | 0.00 | 91 | 1017.5 |
| 20260507065409 | 13 | 323 | 1.6 | 1.6 | 0.00 | 0.00 | 0.00 | 89 | 1017.7 |
| 20260507062405 | 13 | 61 | 1.6 | 3.2 | 0.00 | 0.00 | 0.00 | 88 | 1017.7 |
| 20260507055404 | 13 | 91 | 1.6 | 1.6 | 0.00 | 0.00 | 0.00 | 86 | 1017.8 |
| 20260507052400 | 15 | 27 | 1.6 | 1.6 | 0.00 | 0.00 | 0.00 | 86 | 1017.7 |
| 20260507045359 | 15 | 336 | 0.0 | 1.6 | 0.00 | 0.66 | 0.66 | 84 | 1017.7 |
| 20260507042355 | 15 | 39 | 0.0 | 1.6 | 0.00 | 0.66 | 0.66 | 84 | 1018.0 |
| 20260507035350 | 15 | 55 | 0.0 | 1.6 | 0.00 | 0.66 | 0.66 | 84 | 1017.9 |
| 20260507032350 | 15 | 319 | 1.6 | 1.6 | 0.00 | 0.66 | 0.66 | 85 | 1017.9 |
| 20260507025348 | 15 | 21 | 3.2 | 3.2 | 0.00 | 0.66 | 0.66 | 83 | 1017.3 |
| 20260507022347 | 15 | 354 | 1.6 | 1.6 | 0.00 | 0.66 | 0.66 | 85 | 1017.2 |
| 20260507015346 | 15 | 1 | 1.6 | 3.2 | 0.00 | 0.66 | 0.66 | 87 | 1016.4 |
| 20260507012343 | 15 | 128 | 3.2 | 4.8 | 0.00 | 0.66 | 0.66 | 88 | 1015.6 |
| 20260507005339 | 15 | 76 | 4.8 | 9.7 | 0.00 | 0.66 | 0.66 | 88 | 1015.3 |
| 20260507002334 | 15 | 61 | 1.6 | 1.6 | 0.00 | 0.66 | 0.66 | 88 | 1015.1 |
| 20260506235332 | 15 | 359 | 1.6 | 1.6 | 0.00 | 0.66 | 0.66 | 87 | 1014.5 |
| 20260506232330 | 15 | 64 | 0.0 | 1.6 | 0.00 | 0.66 | 0.66 | 87 | 1014.7 |
| 20260506225329 | 15 | 26 | 0.0 | 1.6 | 0.00 | 0.66 | 0.66 | 87 | 1014.2 |
| 20260506222325 | 15 | 334 | 0.0 | 1.6 | 0.00 | 0.66 | 0.66 | 90 | 1014.5 |
| 20260506215324 | 15 | 298 | 0.0 | 1.6 | 0.00 | 0.66 | 0.66 | 91 | 1013.8 |
| 20260506212323 | 16 | 330 | 0.0 | 1.6 | 0.00 | 0.61 | 0.61 | 82 | 1013.8 |
| 20260506205319 | 16 | 90 | 3.2 | 4.8 | 0.00 | 0.61 | 0.61 | 80 | 1013.9 |
| 20260506202314 | 16 | 70 | 1.6 | 1.6 | 0.00 | 0.61 | 0.61 | 80 | 1014.5 |
| 20260506195312 | 16 | 9 | 3.2 | 3.2 | 0.00 | 0.61 | 0.61 | 83 | 1015.1 |
| 20260506192309 | 14 | 4 | 6.4 | 8.0 | 0.00 | 0.61 | 0.61 | 86 | 1015.2 |
| 20260506185307 | 13 | 8 | 3.2 | 4.8 | 0.00 | 0.61 | 0.61 | 87 | 1015.0 |
| 20260506182306 | 13 | 343 | 4.8 | 4.8 | 0.00 | 0.61 | 0.61 | 88 | 1014.8 |
| 20260506175305 | 13 | 85 | 4.8 | 9.7 | 0.00 | 0.61 | 0.61 | 91 | 1013.6 |
| 20260506172306 | 12 | 4 | 1.6 | 3.2 | 0.00 | 0.61 | 0.61 | 96 | 1014.9 |
| 20260506165258 | 12 | 347 | 1.6 | 3.2 | 0.00 | 0.61 | 0.61 | 98 | 1014.2 |
| 20260506162255 | 12 | 306 | 1.6 | 1.6 | 0.00 | 0.61 | 0.61 | 98 | 1015.1 |